Location: Newark
(42.3314°N, 83.0458°W)
Time: 18:11:16
(UTC+00:00)

Starlink (trailer) - Visible Passes

Search period start: 16 July 2019 00:00
Search period end: 26 July 2019 00:00
Orbit: 548 x 552 km, 53.0° (Epoch: 16 July)

Date Brightness Start Highest point End Pass type
(mag) Time Alt. Az. Time Alt. Az. Time Alt. Az.
16 Jul 4.3 07:34:20 38° SE 07:34:28 38° SE 07:38:20 10° ENE visible
16 Jul 4.6 09:10:07 10° W 09:14:03 40° NNW 09:17:59 10° NE visible
17 Jul 3.9 07:28:57 52° SE 07:28:58 52° SE 07:33:00 10° ENE visible
17 Jul 5.0 09:04:55 10° W 09:08:43 33° NNW 09:12:30 10° NE visible
18 Jul 3.5 07:23:30 71° SE 07:23:30 71° SE 07:27:38 10° ENE visible
18 Jul 5.3 08:59:46 10° W 09:03:23 28° NNW 09:07:01 10° NE visible
19 Jul 3.5 07:18:01 86° WNW 07:18:03 87° NW 07:22:13 10° NE visible
19 Jul 5.5 08:54:37 10° WNW 08:58:06 25° NNW 09:01:34 10° NE visible
20 Jul 3.7 07:12:29 66° NW 07:12:38 67° NW 07:16:46 10° NE visible
20 Jul 5.7 08:49:30 10° WNW 08:52:49 22° NNW 08:56:07 10° NE visible
21 Jul 6.4 05:31:17 10° ENE 05:31:17 10° ENE 05:31:21 10° ENE visible
21 Jul 4.1 07:06:55 50° NW 07:07:13 52° NNW 07:11:18 10° NE visible
21 Jul 5.9 08:44:22 10° WNW 08:47:32 21° N 08:50:42 10° NE visible
22 Jul 6.2 05:25:40 13° ENE 05:25:40 13° ENE 05:26:07 10° ENE visible
22 Jul 4.6 07:01:18 39° NW 07:01:51 41° NNW 07:05:48 10° NE visible
22 Jul 6.0 08:39:13 10° NW 08:42:16 19° N 08:45:20 10° NE visible
23 Jul 6.0 05:20:00 15° ENE 05:20:00 15° ENE 05:20:48 10° ENE visible
23 Jul 5.0 06:55:37 31° NW 06:56:30 34° NNW 07:00:19 10° NE visible
23 Jul 6.2 08:34:02 10° NW 08:37:01 19° N 08:40:00 10° NE visible
24 Jul 5.8 05:14:16 18° ENE 05:14:16 18° ENE 05:15:25 10° ENE visible
24 Jul 5.4 06:49:53 24° NW 06:51:10 29° NNW 06:54:49 10° NE visible
24 Jul 6.2 08:28:49 10° NW 08:31:46 18° N 08:34:43 10° NE visible
25 Jul 5.6 05:08:28 22° NE 05:08:28 22° NE 05:10:00 10° NE visible
25 Jul 5.7 06:44:04 19° NW 06:45:50 25° NNW 06:49:21 10° NE visible
25 Jul 6.3 08:23:32 10° NW 08:26:31 19° N 08:29:29 10° NE visible
